Theta_e
320 320 319 318 318 318 318 318 319 319 319 319 320 320 321 321 321 322 322 322 323 324 324 325 326 326 326 327 327 326 323 326 317 314 312 317 328 332 333 336 337 338 337 322 312 311 309 310 310 311 312 312 312 311 310 312 311 313 304 302 301 303 300 304 302 303 305 303 303 303 304 304 302 303 305 307 305 305 307 306 309 309 308 311 310 313 320 324
320 320 320 318 317 318 318 317 318 318 318 318 319 320 320 321 321 321 322 322 322 323 324 325 325 326 327 326 327 325 324 322 316 312 318 327 329 332 334 335 336 335 331 321 311 310 308 308 310 310 309 307 313 309 311 309 311 307 304 304 301 303 304 306 306 306 304 304 304 304 305 305 304 305 306 303 304 304 304 305 307 307 308 311 311 313 318 321
321 320 320 318 317 317 317 316 317 318 318 318 318 319 319 319 320 321 321 322 322 323 324 324 325 326 326 326 326 325 323 319 313 309 314 329 332 333 334 335 334 334 321 312 312 311 310 309 310 309 309 306 308 305 310 307 309 306 307 300 301 305 304 306 306 304 305 305 304 304 304 305 305 305 307 303 303 304 303 303 305 305 306 309 310 312 317 318
321 321 320 318 318 317 317 317 317 317 318 318 317 318 318 319 320 320 321 321 322 323 324 324 325 325 325 324 325 327 322 314 307 311 319 331 331 333 333 333 331 332 325 314 313 312 311 311 310 310 306 306 305 308 305 306 308 306 302 301 302 304 303 303 305 304 304 305 305 304 304 303 304 306 305 304 302 303 304 306 306 306 307 310 311 313 316 316
321 320 319 318 318 317 316 316 316 316 317 317 317 318 317 318 319 320 321 321 322 322 323 324 324 325 325 325 323 323 317 304 305 314 324 330 331 331 329 329 326 319 316 312 312 311 311 310 309 308 307 304 306 305 305 305 306 306 302 302 304 304 304 302 304 303 303 303 305 304 302 303 306 304 304 304 301 302 305 307 308 308 309 313 312 314 316 316
320 318 318 317 317 316 316 316 316 316 317 317 317 317 317 318 319 320 320 321 322 322 323 324 325 325 324 323 326 320 310 293 309 317 326 327 328 328 325 327 325 317 312 311 312 310 310 309 308 304 304 304 303 301 304 305 306 301 302 302 303 303 303 303 303 301 302 304 304 303 305 305 303 304 305 305 304 305 307 308 309 308 310 314 315 316 316 315
319 318 317 317 316 315 315 316 316 316 316 316 317 317 317 318 318 319 319 320 321 322 323 324 324 324 323 321 322 315 306 304 308 323 327 327 327 323 324 326 324 312 312 311 310 309 309 307 308 305 304 304 303 304 304 304 305 304 301 303 301 304 303 303 302 301 302 303 303 305 305 303 303 301 305 303 306 308 308 309 309 308 307 312 315 316 315 315
320 319 318 317 316 315 315 315 315 316 315 315 316 316 317 318 318 318 319 320 321 322 323 323 324 323 320 325 313 307 306 305 317 322 324 325 320 316 321 317 315 315 312 311 310 308 308 306 305 306 303 301 303 303 303 304 304 303 301 302 302 303 302 302 302 301 302 302 304 304 302 303 304 303 302 303 306 308 308 308 308 307 308 308 312 314 314 315
319 319 317 315 314 314 314 315 315 315 315 315 315 316 317 317 317 318 318 319 320 321 322 323 323 322 319 316 312 304 302 315 321 320 320 317 315 313 318 315 314 313 311 311 310 311 309 306 306 306 302 302 304 303 303 302 300 304 302 303 303 303 302 302 302 302 302 303 303 302 302 304 303 303 302 304 307 309 310 308 308 308 307 307 308 313 314 315
318 316 315 314 314 313 314 314 315 314 314 314 315 315 316 317 317 318 318 319 320 321 322 323 322 320 319 316 307 300 311 318 320 318 315 313 313 313 314 314 314 313 311 310 311 310 309 308 308 308 308 304 306 303 303 303 301 305 303 304 303 302 302 302 303 302 303 304 303 302 302 303 303 302 301 308 307 306 307 307 308 307 307 307 308 309 313 315
317 316 315 314 313 313 313 314 314 313 313 314 315 316 316 317 317 318 319 319 320 321 322 322 321 320 320 312 303 300 315 318 319 315 314 313 314 313 313 313 313 313 312 311 310 311 310 310 310 310 310 303 305 302 304 302 305 305 304 303 302 303 304 303 303 302 303 302 303 303 302 304 303 303 301 308 307 308 306 307 307 306 307 308 309 309 313 315
317 316 315 314 313 313 313 313 313 312 313 314 315 316 316 316 317 318 318 319 320 321 322 321 320 318 309 306 304 308 315 316 315 315 315 315 311 309 311 311 313 314 314 309 311 313 312 310 312 307 302 308 301 303 301 304 305 304 304 300 301 302 302 302 302 303 303 302 303 304 302 301 301 300 305 307 306 307 306 307 308 307 307 309 310 310 311 313
317 316 316 315 314 313 313 313 313 313 314 314 314 315 316 317 317 318 318 319 320 321 322 321 319 319 311 301 310 315 316 317 314 314 313 315 313 313 314 315 315 314 316 312 310 311 311 312 311 306 307 306 303 300 303 306 304 304 303 303 299 300 300 303 304 303 302 303 303 303 295 300 303 304 307 306 306 306 305 306 307 308 308 309 310 310 310 312
317 316 316 314 313 313 313 312 312 313 314 314 315 316 316 316 317 318 319 319 321 321 322 319 320 314 307 302 311 314 317 318 315 313 314 314 314 315 314 315 314 314 314 311 311 312 313 312 312 308 309 305 302 306 305 304 304 301 302 303 300 298 298 302 303 302 301 302 302 303 296 299 304 305 306 306 305 305 305 306 307 308 308 309 310 309 310 311
317 316 315 315 314 313 312 312 312 313 313 314 315 315 316 316 317 318 319 320 322 321 319 319 321 313 302 305 311 317 321 318 313 314 314 314 312 311 311 313 312 312 312 312 311 311 311 313 311 306 303 305 306 304 301 301 302 302 297 295 300 298 299 301 302 302 300 300 303 302 296 298 303 304 304 304 305 304 304 306 307 308 308 308 309 309 309 310
317 316 315 315 314 313 312 312 312 313 314 314 315 315 316 317 317 318 319 320 321 318 322 320 314 309 302 300 310 322 316 310 310 315 314 312 313 310 312 311 312 312 312 310 312 312 313 312 306 305 304 304 303 302 300 300 299 301 298 300 298 298 299 299 299 301 301 301 302 301 297 302 302 305 304 303 305 304 304 306 307 307 308 308 308 309 309 310
316 315 315 315 314 313 313 313 312 313 314 314 314 315 316 317 319 319 320 320 321 318 323 309 308 307 298 307 312 308 308 313 311 314 313 312 311 312 312 311 309 309 311 311 312 313 311 307 305 306 307 303 304 303 297 296 297 297 299 296 301 297 297 296 298 301 303 301 299 301 298 299 302 305 305 303 305 304 304 305 306 307 308 308 308 308 308 309
316 316 315 315 315 314 313 313 313 313 314 314 314 316 317 319 320 318 320 321 317 313 313 311 310 305 298 303 302 304 313 311 312 309 311 311 311 311 311 308 308 309 309 307 310 306 308 304 305 302 302 302 301 300 295 292 295 296 297 295 296 297 297 297 297 299 300 300 298 300 299 299 302 304 305 306 305 305 305 305 306 306 307 308 308 308 308 309
316 316 316 315 315 313 313 313 313 314 314 314 316 317 318 317 320 322 312 310 305 299 296 299 300 293 293 300 308 309 312 311 312 312 309 310 311 312 311 311 310 305 304 302 302 305 305 305 306 301 297 298 298 299 297 297 297 297 298 297 297 296 296 296 299 299 300 299 298 298 297 299 301 303 305 306 307 305 305 306 306 306 307 307 308 309 309 309
316 316 315 315 314 313 313 313 314 314 315 314 315 316 316 306 305 302 309 306 302 300 303 302 302 302 301 306 308 310 312 312 307 309 311 310 310 309 308 308 308 306 302 299 302 304 305 299 297 297 299 300 300 300 299 299 299 297 298 297 295 296 297 299 299 299 300 298 297 299 299 299 301 302 304 305 306 305 306 305 305 306 306 307 307 308 309 309
316 316 315 314 313 313 314 314 314 314 315 316 317 313 298 299 295 294 300 302 307 304 304 305 307 305 306 309 308 308 305 305 310 308 310 313 310 307 303 305 302 299 300 303 302 304 302 297 298 300 300 302 301 301 300 298 299 297 297 297 296 298 294 299 299 299 300 297 297 300 299 300 301 302 303 304 304 303 304 305 305 306 306 307 308 308 309 310
316 316 315 314 313 314 315 315 314 315 314 316 315 311 305 305 312 312 303 296 301 306 307 306 308 306 309 310 311 310 312 304 305 307 311 311 307 303 302 302 299 297 302 302 301 299 297 295 299 300 301 301 301 300 299 299 297 298 297 297 296 296 300 299 298 297 299 297 296 299 297 298 300 301 303 303 303 305 305 306 305 305 306 307 308 309 309 311
317 316 316 315 314 315 316 316 314 315 314 312 312 311 308 316 315 318 310 302 298 304 303 303 302 305 306 309 310 310 304 301 301 305 307 309 305 303 302 299 299 301 299 300 296 297 294 298 300 301 300 299 298 299 299 299 299 297 297 295 293 301 294 292 297 298 298 297 296 297 295 297 300 302 303 305 305 305 307 307 307 308 306 306 307 308 309 310
317 317 317 316 316 316 316 315 316 313 312 314 313 310 319 316 316 316 313 298 296 299 303 305 305 305 305 304 309 307 305 303 305 302 311 307 302 305 302 301 299 300 297 299 298 297 296 298 298 300 299 298 297 298 297 296 295 299 299 297 295 297 297 294 295 298 299 298 298 297 297 298 301 301 303 306 308 306 307 307 307 308 310 310 312 312 312 309
317 317 317 317 316 317 315 315 311 311 315 312 312 317 316 318 316 313 308 298 298 299 304 304 307 306 307 311 311 306 304 304 306 309 309 308 304 301 301 303 301 297 298 299 298 297 297 298 300 298 298 297 298 296 297 298 294 297 300 298 297 299 296 297 299 297 294 294 296 298 290 292 302 301 303 304 302 302 305 305 306 307 308 309 308 309 311 312
316 317 317 317 317 316 316 310 310 314 310 308 313 318 316 317 317 309 304 294 289 297 300 294 306 299 313 305 309 307 304 299 305 307 308 308 308 304 301 299 301 296 298 299 297 298 297 296 299 298 298 298 298 296 299 299 295 294 295 300 300 298 298 297 296 297 290 289 298 299 289 286 296 296 300 302 302 302 304 306 306 307 307 309 309 309 309 309
317 317 317 317 317 317 308 305 315 312 306 309 317 316 316 316 316 314 297 291 286 298 294 303 300 301 310 306 306 304 291 296 306 307 307 307 304 307 299 298 298 299 301 301 295 293 296 296 298 300 298 298 297 295 299 299 295 293 297 300 299 299 297 298 297 297 293 299 299 298 296 289 289 296 300 301 301 301 302 304 305 306 307 309 308 309 309 309
317 317 317 317 317 315 310 313 310 306 305 311 315 315 317 318 317 308 296 283 282 303 296 295 301 308 308 305 308 300 299 303 298 301 306 307 306 303 300 298 296 297 299 298 288 300 297 295 297 297 298 296 295 298 302 301 296 297 297 301 299 298 300 298 298 295 296 294 290 295 299 291 290 297 301 301 298 299 300 301 303 305 309 308 308 308 309 308
317 317 317 317 317 316 316 311 310 306 312 316 315 317 317 316 311 298 290 281 299 297 307 296 309 304 303 305 300 301 300 301 298 302 306 305 306 303 297 300 299 299 299 298 294 297 298 298 298 299 297 295 298 296 300 300 296 297 300 301 300 301 300 299 296 295 294 291 287 293 296 288 289 296 296 299 298 298 299 301 303 306 308 308 308 308 305 305
318 318 317 317 316 314 312 314 310 316 315 315 317 317 316 312 300 290 284 278 300 291 298 299 298 297 301 297 297 299 298 299 301 302 304 301 303 304 300 302 300 298 297 297 299 296 298 299 298 299 297 299 297 297 298 299 300 301 302 301 299 299 298 297 297 294 291 286 289 296 295 292 286 295 296 294 297 299 301 302 304 307 309 307 306 306 307 304
318 318 317 317 311 313 312 307 311 317 315 316 316 316 311 303 291 286 279 289 299 298 298 296 295 301 296 295 293 297 298 299 300 301 298 302 299 301 300 298 302 299 297 298 296 297 299 297 298 299 297 300 300 297 300 300 302 303 300 296 297 295 296 294 292 292 285 284 290 291 295 295 285 291 298 300 302 303 302 301 302 305 306 307 307 305 304 304
317 318 318 316 315 316 307 307 315 318 316 315 315 308 300 288 293 283 283 296 288 294 294 293 298 297 296 298 297 294 295 299 300 299 297 297 297 295 296 293 295 289 288 291 291 297 295 297 300 297 299 299 300 297 296 299 299 301 297 295 288 287 288 285 289 284 285 284 289 290 292 290 290 294 299 300 301 302 303 304 304 305 306 308 307 306 305 304
317 317 317 316 314 313 313 317 316 317 316 313 312 305 293 287 279 288 290 291 288 298 294 301 296 296 296 296 295 296 300 294 300 299 300 299 298 297 299 298 299 296 288 293 292 291 293 299 297 298 297 298 301 293 293 291 295 296 293 291 287 283 283 281 285 287 287 288 288 291 294 287 293 296 300 300 302 303 304 305 307 307 307 307 309 308 305 304
317 317 315 315 315 315 316 318 316 317 312 311 306 298 292 283 283 294 292 293 294 297 299 297 296 297 296 293 296 298 292 298 298 297 300 297 297 295 296 298 300 298 295 296 290 291 286 288 294 296 292 300 300 298 298 295 295 295 299 296 290 288 285 281 284 282 284 286 285 291 287 286 287 293 298 302 303 303 304 305 308 308 310 310 309 309 307 305
317 317 316 315 314 315 317 317 317 316 311 309 300 292 284 284 290 288 290 294 295 297 295 298 295 294 293 297 296 297 297 293 298 297 296 296 293 295 295 295 299 299 299 290 295 293 291 291 298 301 300 300 298 302 302 302 297 298 300 301 293 290 294 286 287 286 285 286 286 285 286 292 293 301 302 304 303 302 304 304 304 305 305 307 307 307 306 305
315 315 316 312 311 314 316 317 316 314 309 303 294 287 285 290 288 295 293 300 297 294 294 296 296 292 291 293 296 295 297 297 296 297 295 296 297 295 299 299 297 298 296 291 296 288 291 289 294 299 301 298 298 300 299 303 288 295 296 290 293 298 295 288 285 286 285 284 282 289 289 293 298 298 300 300 300 301 302 303 302 303 305 306 307 308 308 306
312 314 308 311 311 314 315 316 316 311 308 302 292 286 292 295 298 297 299 296 298 298 295 289 290 291 290 290 291 293 295 298 295 295 291 297 294 298 298 299 302 299 300 297 294 299 291 292 290 295 292 296 296 298 300 299 301 296 289 294 299 302 299 291 284 287 285 282 284 289 286 288 289 286 300 300 299 300 301 301 302 304 306 306 307 309 310 309
311 310 311 310 313 315 316 316 313 309 305 299 291 291 297 294 300 299 300 300 298 298 294 293 293 296 291 291 290 292 295 292 293 294 292 295 290 301 298 298 301 300 300 301 295 297 298 289 292 292 295 296 297 298 297 299 299 298 294 302 292 287 285 290 287 280 280 281 283 288 289 289 291 290 295 297 297 299 300 302 302 302 304 306 307 308 310 308
310 308 302 310 314 314 314 315 311 305 299 293 290 289 296 298 304 300 302 300 301 298 293 295 293 295 296 291 293 294 294 289 294 291 290 294 289 299 297 299 298 301 301 300 295 297 298 288 290 290 294 296 296 296 287 292 298 300 301 296 300 294 289 287 287 287 287 282 282 284 287 285 294 294 297 297 298 300 300 301 302 303 304 305 306 308 311 307
305 301 301 312 313 314 314 313 306 302 296 288 291 293 300 297 299 304 302 301 298 296 295 295 298 293 295 295 296 291 295 294 294 293 293 296 293 302 298 301 298 299 300 300 297 300 293 294 286 290 294 295 288 293 290 294 289 290 291 291 294 290 293 292 294 288 285 283 283 282 282 287 295 299 298 299 300 301 301 301 304 304 305 306 308 312 312 309
308 301 301 312 312 313 311 305 298 293 291 293 297 295 298 297 300 300 303 305 304 303 297 297 297 294 295 295 293 297 293 294 295 292 293 295 294 290 300 300 302 297 301 299 297 298 290 290 287 288 289 288 292 299 297 298 297 293 292 290 292 289 287 285 283 293 287 286 283 283 282 289 298 300 301 300 301 302 303 303 304 306 306 308 314 309 308 308
301 291 298 312 313 312 304 293 292 297 293 290 290 296 296 300 301 299 301 302 305 299 301 300 300 298 297 295 296 295 294 292 294 294 295 294 297 297 301 302 301 301 296 293 294 299 297 297 290 288 289 292 297 295 295 294 295 297 296 293 296 294 292 288 282 286 287 288 290 288 285 288 300 301 301 301 302 303 304 306 304 305 308 308 308 307 306 307
300 296 309 311 313 309 300 290 288 291 290 294 300 297 300 300 300 302 299 301 299 303 299 298 298 298 299 297 297 296 295 292 294 292 296 296 297 299 303 301 303 300 300 296 299 297 296 289 288 289 296 294 293 295 296 295 296 295 295 296 296 292 293 291 289 291 288 288 286 286 283 288 301 302 301 301 302 302 302 302 304 305 306 306 306 306 305 304
301 301 301 310 312 308 297 285 284 285 288 293 295 296 298 298 299 298 298 300 298 299 298 297 300 300 298 301 299 295 297 289 295 295 294 298 296 301 301 301 301 298 298 297 294 298 290 289 290 286 286 288 290 292 292 295 295 292 293 295 297 298 297 295 290 290 287 288 288 286 281 287 301 301 299 299 301 300 301 302 301 302 304 306 305 306 304 303
301 303 303 304 309 305 293 291 288 288 287 287 289 289 294 295 297 299 300 299 302 301 299 297 299 301 300 301 299 299 299 296 292 297 298 298 297 297 301 302 301 299 300 306 299 301 293 292 289 284 281 280 280 282 283 286 288 292 294 295 296 295 294 291 287 289 285 288 288 286 286 292 297 297 298 299 300 300 302 302 301 303 303 303 306 307 305 304
295 287 296 299 303 302 301 300 294 290 287 286 285 288 292 291 296 299 299 297 301 302 301 302 301 301 299 297 296 296 296 299 296 293 295 296 297 296 300 302 301 301 299 297 301 300 292 296 293 291 288 286 289 293 298 296 292 288 291 292 294 295 296 295 292 288 285 288 287 289 290 291 294 297 297 299 299 299 299 301 302 303 304 305 305 306 306 305
299 292 293 289 298 298 297 297 293 292 287 291 286 290 286 289 293 294 299 294 299 299 300 300 300 296 296 295 294 295 297 297 298 300 296 297 300 298 298 301 302 300 295 297 300 298 292 291 294 294 293 294 295 297 297 296 292 292 291 291 294 294 294 291 289 287 291 288 285 291 294 290 292 296 297 298 297 299 301 303 303 303 305 307 309 308 302 303
289 294 299 300 293 289 291 292 295 293 294 293 288 293 289 289 290 287 295 296 299 300 295 297 298 300 299 295 296 291 294 294 296 294 299 298 296 298 295 297 297 297 296 299 303 295 289 288 294 294 294 295 296 296 298 297 296 295 294 294 292 294 292 288 289 293 294 288 286 292 296 292 294 297 299 300 301 300 301 302 303 304 305 307 308 308 306 305
297 296 296 300 292 297 296 296 296 294 292 292 290 291 287 289 288 292 293 292 293 293 296 288 294 297 299 300 296 291 294 288 289 296 292 292 292 293 291 295 297 299 297 297 298 297 291 289 292 295 291 294 295 295 299 296 295 296 296 296 296 295 293 293 293 294 294 292 294 294 295 295 298 298 300 301 303 303 303 304 304 303 303 305 305 305 307 307
291 292 291 296 296 294 296 296 295 294 290 292 288 290 291 290 289 292 295 293 287 290 297 292 294 296 297 298 298 295 296 296 295 290 299 294 290 295 293 295 293 295 296 293 295 295 291 287 292 290 289 289 292 293 293 293 293 290 294 296 296 296 295 295 294 295 295 294 295 295 294 294 299 302 302 304 303 304 303 302 302 303 304 303 304 304 304 305
298 297 297 293 290 293 295 296 293 292 290 291 289 291 291 292 292 294 293 297 293 291 293 291 294 296 297 296 295 295 299 299 299 299 299 297 291 297 294 292 297 289 291 289 291 289 291 287 290 290 287 287 290 289 290 290 289 289 289 292 294 294 292 294 292 295 293 291 293 293 290 292 298 302 303 303 303 302 301 302 302 303 303 303 303 304 304 305
300 301 299 296 289 294 292 295 294 292 287 292 292 293 292 292 295 296 291 297 297 297 296 295 296 295 293 294 293 296 299 300 299 299 299 297 297 296 299 297 297 293 289 289 291 289 288 289 288 289 286 285 289 289 287 287 286 285 286 290 293 295 296 297 297 297 296 297 292 289 291 297 300 302 300 300 301 301 302 302 302 303 304 304 304 304 305 305
Wind_Speed
9 7 7 7 6 5 4 3 3 1 0 1 1 2 3 4 4 5 5 5 5 6 6 6 7 7 7 8 8 7 7 4 5 6 5 4 3 6 7 6 7 8 5 5 3 5 5 5 5 3 2 3 2 1 1 1 2 2 5 5 4 1 5 6 3 5 5 4 8 10 10 8 7 6 5 3 4 5 3 6 5 1 1 6 7 6 8 9
11 9 9 7 6 5 4 3 3 2 0 1 1 2 3 4 4 5 6 6 6 6 7 7 7 7 8 8 8 7 5 5 6 4 4 3 4 6 7 7 7 6 5 5 7 6 4 5 4 5 4 3 2 2 2 2 1 4 4 4 3 2 4 3 3 5 0 2 10 9 9 7 2 9 6 6 7 8 7 8 7 7 7 7 7 8 9 9
11 10 10 7 5 5 5 2 3 3 2 0 0 2 3 4 4 5 6 6 7 7 7 7 7 8 9 9 8 6 3 5 5 6 4 4 5 7 7 8 7 4 4 5 2 5 4 1 5 6 3 3 2 3 5 3 3 0 4 5 1 5 6 6 3 5 5 4 8 9 7 6 4 3 6 7 5 7 9 6 9 9 10 10 9 9 10 10
11 10 9 7 7 5 5 4 3 3 2 1 0 1 3 4 5 5 6 7 7 8 8 8 8 8 8 10 8 6 4 4 6 6 3 6 6 7 7 8 7 6 6 5 2 3 1 2 4 5 4 3 4 2 6 3 3 3 5 3 4 2 4 4 5 6 5 4 5 7 6 6 4 3 6 5 7 7 8 8 7 8 10 13 12 11 11 11
12 11 8 7 8 6 5 5 4 3 3 1 1 2 2 4 5 5 6 7 7 8 8 8 8 8 8 9 10 3 4 5 4 4 6 6 7 7 7 7 7 5 5 1 3 2 4 5 5 3 5 4 3 4 2 3 3 2 2 4 2 2 3 4 4 4 4 3 2 6 8 7 6 2 7 7 8 4 1 4 5 3 5 12 12 12 11 12
11 10 6 7 8 7 7 6 5 4 4 2 3 2 3 4 5 6 6 7 8 8 9 9 9 9 8 7 5 3 4 4 2 2 5 7 7 7 6 6 6 6 3 4 4 3 5 5 6 5 4 4 6 5 5 1 1 3 4 3 3 5 3 3 2 3 4 1 3 6 3 6 6 5 8 9 12 1 4 7 7 6 5 6 9 12 11 12
10 9 9 6 8 7 8 7 6 5 4 4 3 3 4 4 5 6 7 8 8 9 9 9 9 10 11 7 2 4 7 2 2 3 4 7 7 4 5 5 4 4 4 4 5 5 5 6 6 4 2 3 3 2 3 3 2 6 3 4 4 3 5 3 4 3 1 2 1 3 4 5 4 9 3 9 12 10 6 5 6 6 4 4 9 11 12 12
11 12 10 7 8 9 8 8 7 7 5 4 5 4 5 5 5 7 7 8 9 9 9 9 9 9 9 3 2 4 7 3 4 1 5 5 7 5 3 6 4 4 3 3 2 6 5 6 5 4 4 2 5 3 3 4 2 3 4 4 4 4 5 4 4 2 1 2 2 1 4 6 3 3 2 10 11 11 6 5 4 4 4 5 7 10 10 10
8 8 8 8 3 4 8 8 8 7 6 6 5 5 5 5 6 7 7 8 9 9 9 10 9 10 4 3 5 5 4 3 5 5 6 7 7 4 2 1 2 5 1 1 2 2 5 3 1 2 2 4 2 6 3 3 5 2 7 6 5 5 5 5 4 2 2 2 0 4 5 2 0 4 10 16 10 3 6 3 4 4 5 7 8 9 9 10
11 9 8 7 5 8 9 9 9 7 7 6 5 6 5 6 6 7 7 8 8 9 9 9 10 10 4 4 4 7 3 6 3 3 5 5 6 5 1 4 3 1 3 2 1 1 4 4 1 5 6 8 2 3 1 3 3 4 8 6 6 6 5 2 3 4 2 2 2 4 5 4 2 2 5 3 5 3 3 5 5 5 7 8 7 8 9 9
12 11 9 6 6 8 10 10 10 8 8 7 7 6 6 6 6 7 7 8 8 8 8 9 9 8 3 6 7 4 2 4 3 3 4 4 5 2 3 5 5 1 6 6 5 4 4 5 4 3 3 4 6 5 2 4 1 6 8 8 7 4 3 4 3 4 3 3 2 4 7 1 4 4 12 3 4 4 4 7 6 6 7 7 8 7 7 7
13 12 11 10 8 8 11 10 10 9 9 8 6 7 7 7 7 7 8 8 8 7 7 7 8 3 5 6 7 3 3 4 3 3 2 4 2 3 4 3 4 5 4 6 5 5 5 4 1 2 2 5 4 8 5 1 2 6 4 6 5 4 4 4 4 3 3 1 0 2 8 11 9 11 14 6 6 5 4 5 6 7 7 7 7 7 7 7
15 13 13 12 10 11 11 11 9 10 9 7 7 8 8 6 7 8 7 7 5 7 7 6 5 3 3 9 3 0 3 1 2 2 4 3 5 3 2 3 4 6 6 6 5 3 4 2 5 5 4 2 5 1 6 2 4 3 3 1 6 6 6 7 4 2 4 2 1 2 5 4 14 18 5 7 5 4 4 7 7 6 7 7 7 7 7 7
12 13 13 12 10 11 12 11 10 10 8 8 8 7 6 7 8 7 7 7 8 7 6 6 3 3 5 2 2 3 3 2 2 2 2 2 0 4 5 5 7 7 8 9 5 2 1 2 3 8 4 4 4 4 8 5 3 4 3 2 4 6 4 5 4 5 6 4 3 2 6 7 3 6 8 5 5 6 7 8 8 7 7 7 7 7 8 9
12 12 13 12 11 12 10 11 10 9 9 8 8 7 7 8 8 8 7 7 3 6 5 5 3 3 7 3 2 4 2 4 2 3 3 3 7 7 6 7 9 9 7 7 4 0 2 3 4 5 4 2 8 6 7 5 3 3 5 6 4 6 5 5 3 4 6 4 5 5 7 10 11 6 3 4 4 5 7 7 7 8 8 8 7 8 8 8
13 13 13 12 12 11 12 11 10 9 9 9 8 8 8 9 8 7 6 6 6 4 2 3 3 4 4 6 3 1 2 4 4 3 2 4 5 3 6 7 6 5 4 5 1 1 3 6 5 3 7 2 6 5 5 5 4 4 6 2 5 5 4 5 3 1 1 3 6 10 6 4 2 5 4 3 6 6 6 7 6 8 9 8 8 7 7 7
13 13 11 11 13 13 12 11 10 10 9 8 7 9 9 8 7 6 5 5 2 2 2 2 3 1 6 3 0 4 5 3 1 1 1 2 5 7 7 6 5 6 6 3 2 1 3 2 1 1 3 4 3 4 5 5 4 6 5 5 1 5 3 4 4 2 1 4 5 10 9 11 10 4 6 7 7 6 6 8 9 8 8 9 8 8 8 9
14 12 11 10 13 13 11 10 10 10 9 6 8 6 6 6 6 6 4 4 1 2 4 2 3 3 4 2 5 5 5 6 2 2 2 2 3 1 2 4 4 6 6 6 2 2 1 2 4 1 4 4 4 6 5 4 5 5 6 6 5 5 6 3 2 4 3 4 8 8 12 15 14 14 13 8 10 10 11 10 11 11 11 10 9 9 10 9
13 12 12 13 13 11 11 10 10 10 7 7 7 9 10 10 5 4 3 3 5 4 4 7 8 11 1 12 7 7 3 3 2 2 5 5 1 1 2 3 6 8 6 5 3 2 2 3 3 4 6 7 7 7 6 2 4 4 2 4 2 3 5 6 5 4 1 5 7 10 11 13 12 13 12 12 12 11 12 12 11 11 11 12 11 10 9 9
14 13 14 14 12 10 11 11 11 9 7 5 6 4 4 5 4 4 4 3 8 1 4 3 11 5 5 5 7 5 4 4 6 2 4 1 2 6 5 4 3 4 5 5 6 2 3 5 6 6 7 8 7 4 4 5 4 2 2 3 4 3 3 7 5 4 0 4 10 12 13 15 16 13 13 13 12 14 12 13 13 12 11 11 11 12 11 10
13 13 13 13 12 11 12 12 9 8 3 7 6 6 7 12 11 8 9 7 3 2 5 4 4 2 5 7 8 12 10 3 1 7 4 2 5 7 6 7 7 7 4 4 3 2 2 6 7 5 7 4 4 4 3 3 2 3 2 3 4 3 5 4 3 3 2 3 5 6 9 15 17 14 15 14 14 17 17 15 15 15 14 12 13 13 12 10
12 11 11 11 12 13 12 10 9 5 1 5 6 5 3 4 3 4 6 6 5 2 1 2 2 6 2 5 3 3 3 6 5 6 3 3 8 8 9 8 10 9 6 5 4 4 6 7 2 7 5 6 5 3 2 1 2 2 4 2 3 4 2 6 5 2 2 2 8 8 10 14 17 16 16 16 17 15 15 15 16 16 14 13 12 12 11 9
12 12 13 11 13 12 11 8 8 5 6 6 7 6 2 2 3 1 3 3 7 2 1 4 5 6 5 2 3 3 7 7 9 9 9 6 9 6 9 10 10 5 8 9 8 6 6 9 5 5 5 6 4 3 3 3 3 3 5 4 5 3 2 3 4 1 4 3 7 10 12 14 18 17 19 19 15 14 13 14 16 15 16 16 14 11 9 10
12 12 12 13 12 12 10 9 7 5 7 9 7 6 3 2 2 3 4 5 5 5 3 1 4 4 8 6 5 6 5 3 4 13 5 5 10 4 6 12 10 6 8 10 11 8 5 5 3 4 4 4 6 5 6 5 6 6 5 5 6 2 1 3 3 4 4 2 2 10 12 12 12 11 8 6 4 6 9 10 14 14 12 12 7 6 8 9
13 12 12 11 12 11 9 10 6 5 5 4 8 4 3 2 1 2 4 2 2 3 2 1 2 4 4 2 2 7 2 3 5 5 7 7 7 4 5 3 4 9 9 10 10 9 4 3 4 6 4 4 6 6 7 5 7 5 8 9 6 3 4 2 4 7 5 5 3 6 7 5 3 5 5 3 2 5 7 9 12 12 12 10 10 10 8 8
14 13 14 12 12 11 11 6 6 5 7 9 2 3 3 2 3 1 3 5 8 6 4 8 6 5 6 5 5 3 3 5 2 2 3 1 6 4 5 5 1 7 11 8 8 3 1 3 4 6 6 5 6 6 6 6 6 7 1 2 7 3 2 3 5 4 4 4 3 2 4 10 4 11 9 8 7 7 6 9 12 11 8 8 7 6 7 8
14 14 14 14 14 14 7 3 6 9 7 7 3 4 3 1 2 2 6 3 8 8 12 3 4 2 2 8 9 5 8 8 4 6 5 4 3 3 6 7 4 2 3 4 3 5 6 5 3 3 6 6 5 6 6 9 6 6 3 2 1 2 2 3 3 4 7 5 7 6 6 9 11 9 13 14 10 8 8 10 13 9 8 5 4 5 4 4
16 14 14 14 16 15 2 2 7 10 5 3 2 4 4 2 2 2 5 5 5 9 7 4 2 2 2 4 4 9 5 13 7 4 4 2 3 5 4 6 10 9 6 5 7 4 5 7 8 9 7 6 8 1 2 10 6 2 2 3 3 2 1 1 2 4 3 6 7 5 5 4 9 3 2 10 8 7 9 14 11 6 2 3 2 2 4 2
16 16 14 14 14 16 6 2 4 7 4 1 3 4 3 4 3 6 6 7 3 5 5 7 1 5 6 6 4 4 5 2 3 5 2 3 4 2 7 4 3 5 6 5 5 4 4 1 6 6 7 7 4 3 5 3 8 2 3 4 6 4 2 1 3 3 4 4 8 5 6 4 15 6 7 5 7 9 12 10 8 2 4 2 2 3 2 3
17 16 17 15 12 11 8 7 8 1 3 3 3 5 5 3 6 8 9 9 8 6 3 4 8 11 12 12 8 5 6 3 3 6 7 5 5 2 4 3 3 5 5 1 3 4 2 1 3 2 5 3 6 6 4 6 6 9 6 6 4 2 2 2 1 3 3 6 7 6 8 3 7 7 9 9 8 11 7 6 4 4 4 4 4 3 3 3
17 17 17 17 12 5 4 8 9 5 1 1 4 7 6 3 9 10 10 3 4 4 3 8 8 14 17 17 11 6 5 5 7 11 7 2 6 3 5 3 2 3 2 3 4 5 3 4 4 1 2 5 7 7 6 2 5 5 4 4 3 3 3 3 3 2 4 7 2 5 1 5 5 3 6 4 1 2 4 4 3 2 1 3 3 4 4 4
19 19 19 15 11 6 12 5 2 6 3 2 5 8 8 9 4 14 9 6 6 9 11 10 10 12 18 16 7 12 10 7 9 10 11 10 9 10 11 9 9 5 6 9 6 5 5 5 5 6 3 5 6 7 5 3 2 3 6 5 4 3 2 4 4 4 7 7 3 3 1 3 17 14 2 2 3 5 4 2 1 1 1 3 5 6 5 5
19 18 18 12 9 9 12 1 0 4 5 4 5 8 10 10 10 10 10 11 3 7 8 10 13 14 15 15 10 13 9 11 9 9 10 10 9 10 12 12 12 9 6 9 8 5 3 5 7 5 3 6 6 8 6 4 8 8 9 8 6 6 6 8 6 2 2 3 1 4 2 7 13 11 12 16 15 11 6 5 4 5 5 3 5 6 6 5
20 19 13 10 11 10 9 4 2 6 7 4 7 8 8 10 9 12 13 10 3 3 8 7 13 12 17 12 12 13 8 2 12 7 8 8 9 9 11 13 6 8 0 4 10 8 6 5 8 11 5 11 9 10 6 5 12 12 8 9 7 5 4 6 5 7 4 1 3 4 0 6 1 2 6 3 5 4 2 2 4 5 4 3 3 4 7 7
20 18 14 10 7 10 7 5 6 6 6 6 9 11 12 10 11 17 16 7 5 5 7 12 15 15 13 3 5 14 3 6 9 9 8 9 11 9 11 12 12 8 8 6 6 3 12 7 5 6 4 13 12 5 2 5 5 7 5 2 5 9 5 9 2 3 2 1 2 3 7 4 7 7 6 4 3 5 5 7 7 8 7 6 6 8 8 8
17 10 12 7 9 9 8 5 6 8 8 8 10 11 14 13 12 12 10 10 7 9 12 11 7 12 9 7 2 12 3 1 9 6 7 10 8 11 11 8 13 17 10 11 5 7 3 7 3 2 1 7 6 3 3 2 6 7 6 6 5 6 1 1 1 3 1 2 10 4 8 11 10 18 20 19 16 13 10 7 5 6 8 8 9 8 7 8
7 9 12 9 10 9 8 7 6 7 6 6 11 11 13 12 10 7 7 15 12 19 14 12 8 9 10 9 7 10 5 5 7 7 7 7 7 9 10 11 9 16 17 11 5 5 5 2 2 4 6 1 3 4 3 3 3 6 5 7 4 1 4 3 6 2 4 9 7 4 10 13 3 11 8 4 5 7 8 9 9 9 8 9 8 7 4 6
4 4 9 11 10 10 8 8 9 6 5 5 9 14 11 13 9 6 10 15 16 14 10 10 6 10 9 10 9 13 9 10 10 8 7 12 5 12 13 6 11 14 19 14 8 3 4 7 3 3 4 4 1 0 4 2 4 3 1 3 6 4 5 8 3 8 8 7 6 9 12 13 13 17 5 2 6 5 8 8 9 11 12 10 9 10 4 6
3 4 3 9 9 9 9 9 8 8 7 7 7 14 10 12 3 9 12 13 12 12 11 9 6 8 8 10 8 13 15 11 13 10 8 8 8 10 15 11 9 16 15 11 7 2 4 7 3 2 1 4 3 6 8 7 2 2 2 2 2 2 4 7 8 2 3 8 5 7 9 11 12 10 12 14 12 9 7 9 9 11 11 9 8 8 6 7
5 5 4 8 14 11 9 8 7 6 8 12 10 9 2 8 3 2 10 17 9 12 10 12 10 9 9 7 12 9 11 11 12 10 11 8 8 7 12 13 7 10 14 15 8 5 5 3 7 4 4 3 5 8 10 10 9 7 6 7 4 3 3 4 2 5 4 6 7 8 11 11 8 5 9 7 7 7 7 7 7 7 9 9 7 1 4 4
1 0 1 8 13 12 10 7 9 10 9 7 8 4 2 1 2 3 2 7 2 6 3 11 10 11 10 6 6 6 7 10 9 9 9 8 11 4 9 9 8 9 8 9 10 5 3 4 8 4 5 9 7 3 5 7 11 13 14 14 14 10 6 6 8 3 0 4 6 6 12 12 4 4 1 3 2 3 6 5 5 7 9 8 4 4 5 5
6 6 5 10 13 15 12 7 2 7 4 10 9 5 4 3 3 3 3 2 2 4 2 4 11 8 10 10 10 9 7 8 8 9 8 10 13 11 6 15 11 16 13 10 14 14 8 2 5 6 8 8 2 2 2 0 4 2 5 10 9 10 8 7 9 3 1 5 5 4 6 18 1 4 2 1 2 1 2 1 6 5 4 4 5 4 2 2
7 6 3 14 14 16 9 3 2 5 8 2 6 4 2 1 1 2 5 6 6 1 4 5 11 10 8 10 9 7 13 5 12 10 9 11 8 13 6 15 14 16 8 4 5 3 6 2 4 9 3 4 3 3 2 2 2 5 8 4 5 11 12 9 7 3 4 4 7 8 8 14 1 3 4 2 2 1 2 1 3 5 4 3 2 0 1 2
6 5 3 7 15 12 11 7 7 8 8 4 2 2 5 2 1 5 5 7 7 6 7 7 1 11 7 9 10 12 14 5 10 11 8 8 5 3 12 11 20 11 11 10 8 10 4 4 8 5 5 4 4 2 3 2 3 6 5 7 7 7 10 5 2 1 5 11 13 8 12 14 1 2 2 2 3 3 4 3 2 4 4 3 3 2 1 3
2 2 1 6 8 10 9 5 6 9 7 10 7 9 6 2 3 3 2 5 2 3 6 7 6 6 4 7 9 11 16 15 3 15 10 8 7 2 6 14 18 12 10 3 3 13 6 9 9 8 10 11 9 9 11 8 10 6 8 13 15 15 15 5 8 8 10 14 15 10 14 19 3 1 4 4 4 3 4 3 3 4 5 4 3 2 4 4
5 4 3 5 7 7 6 6 6 4 8 9 4 9 5 7 2 1 2 4 2 2 3 1 3 5 6 10 10 11 13 16 13 5 13 8 4 2 4 8 16 12 9 8 6 11 2 6 12 13 13 13 11 1 4 12 8 9 12 15 15 17 17 13 5 9 15 14 8 14 18 19 15 7 6 8 5 7 6 5 6 5 5 5 5 4 3 3
3 4 5 5 3 9 9 8 10 9 8 10 8 7 11 13 7 1 3 3 3 3 1 1 4 10 9 13 13 12 14 13 13 5 12 13 4 4 2 3 7 8 10 5 4 4 0 4 12 16 19 16 15 7 9 16 14 16 15 15 18 16 17 14 14 19 12 4 16 18 16 14 24 20 14 9 7 5 6 6 5 3 4 5 4 4 5 5
4 2 3 1 3 5 11 12 14 13 10 14 6 5 12 13 12 7 1 6 4 1 4 1 5 9 10 16 12 9 12 13 12 13 7 7 7 5 4 3 5 4 6 5 7 6 4 6 12 14 16 19 17 13 13 11 13 13 15 15 18 18 17 17 20 22 14 13 18 19 8 16 22 21 13 19 10 10 11 10 7 7 6 2 3 5 7 8
3 3 2 3 3 1 11 8 19 16 14 15 6 8 7 13 15 14 8 5 6 2 5 4 8 11 7 8 11 8 11 7 11 11 7 3 4 5 3 3 7 3 5 4 5 2 3 8 10 12 13 17 18 19 10 12 7 9 13 16 17 20 22 24 23 22 22 18 19 21 19 17 20 18 11 13 13 11 10 7 6 7 9 8 11 13 10 9
5 4 4 0 3 3 2 9 12 14 11 16 10 12 12 14 17 14 6 8 4 10 7 13 12 8 9 6 4 6 10 12 10 11 5 7 2 6 6 7 5 5 4 7 4 3 6 9 14 7 7 12 19 16 10 10 11 9 9 11 16 20 22 25 21 19 19 21 22 22 20 22 22 15 13 10 3 2 3 7 11 12 12 14 15 16 17 17
3 2 2 3 5 5 2 7 10 13 10 10 9 9 11 15 16 14 12 10 13 10 12 20 18 12 8 7 7 9 6 5 4 4 2 8 9 6 7 2 7 4 6 3 2 1 6 3 3 2 9 13 13 10 8 2 4 8 11 16 19 23 19 14 14 13 13 18 21 19 20 22 15 2 11 10 9 9 11 12 11 11 15 16 18 17 15 14
1 1 1 1 2 4 6 4 7 7 7 10 14 14 11 17 11 11 6 5 11 12 12 17 17 12 11 11 14 15 12 5 6 6 7 7 6 5 5 4 3 8 7 7 1 2 4 4 5 4 9 12 12 3 7 5 1 7 14 24 25 12 12 11 14 18 21 18 16 15 19 20 12 3 5 9 10 12 12 11 13 15 18 18 18 16 15 15
Wind_Direction
177 200 186 200 195 196 196 191 197 152 124 2 353 9 16 360 2 359 1 355 353 345 339 334 333 328 326 325 330 333 316 247 191 204 211 62 13 346 329 317 310 304 309 284 211 212 201 187 170 196 191 209 57 193 36 27 330 238 212 239 220 148 198 130 188 173 32 158 139 165 174 197 164 162 157 174 200 229 141 216 160 92 155 87 110 126 127 135
175 193 193 202 199 203 188 201 206 191 277 265 6 352 2 1 358 348 354 349 346 340 337 335 331 330 328 327 330 331 305 250 212 184 60 53 2 339 322 314 312 305 297 240 208 212 212 178 170 194 187 150 215 80 223 120 308 232 231 242 252 111 61 5 75 66 46 79 146 162 179 203 172 164 153 211 197 198 208 212 194 203 178 130 139 137 153 153
176 190 183 194 208 205 202 226 204 201 227 181 64 4 347 356 345 351 344 347 342 337 335 334 335 330 333 331 328 312 285 227 217 171 112 51 357 332 327 317 306 313 259 312 303 271 281 180 162 200 206 148 213 147 237 102 278 160 284 221 135 70 86 54 40 82 52 343 141 156 165 205 102 181 129 220 221 193 226 213 192 216 199 181 163 159 157 170
156 160 173 199 219 218 215 221 202 222 228 164 309 331 348 335 344 342 347 341 339 333 334 335 333 336 331 325 334 306 268 197 211 119 83 38 359 336 329 319 311 275 256 262 293 274 229 153 176 234 169 225 125 173 196 96 255 106 236 312 54 28 128 82 72 63 46 345 160 154 148 193 157 167 184 203 241 227 236 242 220 204 221 179 164 165 166 174
155 160 174 200 217 219 221 219 228 257 244 225 318 335 342 330 335 340 342 341 333 332 334 334 335 333 333 324 315 270 215 240 137 86 52 18 351 338 327 315 310 271 251 242 199 177 207 174 174 199 220 145 157 178 82 115 2 231 28 51 28 41 88 95 80 40 20 334 142 137 159 195 114 187 214 222 227 230 315 197 207 301 17 140 161 170 171 180
160 155 160 207 215 223 234 223 231 236 250 265 286 342 327 332 327 338 340 342 336 332 334 337 337 334 327 329 294 247 244 213 39 114 3 358 337 333 314 299 291 303 222 223 240 173 191 175 185 178 196 178 168 201 110 70 6 217 128 83 52 12 80 94 123 58 331 120 161 180 159 100 183 208 211 228 236 206 68 53 66 75 71 134 157 160 177 185
165 149 156 199 226 231 238 232 232 247 262 264 284 305 320 322 327 329 339 339 339 333 337 339 339 336 327 300 230 238 240 59 220 61 16 332 319 317 304 258 238 253 244 237 188 194 204 176 224 173 185 95 132 84 99 149 194 297 103 126 73 8 81 61 77 81 15 296 135 40 59 217 181 236 148 234 239 251 99 89 83 88 120 139 160 174 184 189
174 162 164 189 222 229 237 238 247 247 264 285 282 300 313 319 326 329 331 335 337 332 336 340 341 337 345 255 209 203 221 103 70 85 357 324 308 339 225 265 259 245 230 279 208 197 193 192 197 163 209 220 131 158 125 173 215 215 123 115 96 72 81 87 101 110 91 63 31 243 210 214 221 278 15 248 243 244 197 136 129 126 136 171 187 186 193 193
173 162 146 137 162 255 245 241 244 243 261 270 279 285 298 319 318 326 327 329 330 333 331 337 343 337 304 276 247 225 168 42 349 339 336 336 328 332 204 249 165 240 166 194 322 353 227 141 206 215 179 147 151 132 184 232 159 15 107 120 121 99 104 111 122 121 129 107 145 192 225 143 182 338 269 257 248 118 108 155 174 184 195 200 206 200 196 196
159 146 142 142 176 237 252 244 244 246 266 269 276 276 284 300 316 316 318 322 324 326 330 332 346 332 290 229 224 235 80 301 329 341 342 327 309 287 221 359 330 254 215 49 210 258 249 117 352 144 89 72 179 97 2 300 55 114 120 118 116 117 126 179 170 137 104 76 152 259 237 190 126 225 260 125 90 134 168 208 197 200 216 212 212 210 205 201
170 158 148 156 183 221 241 241 243 247 267 270 273 274 283 298 307 311 319 317 320 321 326 336 346 321 240 244 227 199 351 302 360 342 347 315 311 342 15 339 333 282 98 81 59 14 35 110 109 103 254 114 133 98 22 69 159 121 118 112 110 136 121 141 144 134 191 149 228 279 276 188 181 209 241 133 131 139 186 200 200 210 222 216 210 207 203 207
177 168 167 172 188 212 235 239 243 252 259 260 269 277 288 294 306 313 316 321 308 322 328 335 329 302 272 244 234 20 327 360 339 352 346 335 46 22 346 338 327 324 303 102 70 24 21 77 321 336 112 173 129 121 91 144 161 132 177 157 141 153 185 178 189 144 245 125 235 317 281 252 191 229 233 178 153 147 194 218 201 207 212 215 210 203 199 204
174 174 177 184 190 218 225 235 239 247 248 257 269 270 277 302 307 308 312 311 327 322 331 352 316 258 276 216 65 201 345 7 32 12 85 79 107 73 49 7 16 25 3 108 98 36 4 10 298 105 59 223 103 326 111 185 109 166 198 259 158 190 220 159 122 122 236 102 255 254 262 248 204 224 157 135 159 173 218 235 231 219 212 212 208 206 208 200
178 174 178 184 191 213 222 229 240 243 247 253 260 271 292 304 310 304 303 306 313 320 334 343 324 256 247 155 80 46 324 351 279 216 73 318 248 69 76 60 53 55 54 83 70 356 313 256 114 95 34 43 124 180 146 117 182 185 145 264 222 194 179 139 175 137 221 111 192 239 265 281 89 144 120 138 155 198 233 240 239 231 218 210 207 209 211 206
179 174 180 182 186 208 216 226 236 242 244 251 258 272 293 306 303 306 301 290 304 341 327 312 242 231 219 85 153 90 11 272 247 86 14 317 129 113 95 84 63 61 64 76 91 272 295 323 157 132 91 28 118 170 141 159 180 147 170 207 201 241 114 130 122 171 242 138 199 202 259 257 272 121 132 130 176 201 228 246 248 240 226 220 210 211 213 211
175 181 180 181 189 197 212 217 228 237 236 246 255 274 296 294 300 299 306 302 321 314 249 251 171 289 277 190 86 199 216 200 150 41 18 309 320 128 113 99 105 96 97 66 56 240 45 56 62 63 118 152 193 181 156 153 179 198 244 143 189 220 151 166 136 115 16 117 176 218 263 330 202 117 125 162 192 194 231 243 244 243 238 229 221 216 216 206
179 180 189 190 198 200 207 211 220 229 238 239 271 274 271 281 291 294 295 311 270 212 250 315 157 219 231 43 206 209 178 108 14 169 29 38 304 132 139 128 118 105 104 129 127 191 34 126 166 228 240 207 204 199 190 206 181 200 205 252 152 222 192 232 97 183 153 244 221 208 244 249 272 263 165 175 188 187 232 253 258 252 241 229 223 219 214 210
181 182 181 192 195 194 204 210 214 224 232 253 259 275 276 283 293 266 201 211 148 216 217 243 256 209 220 84 198 160 87 127 137 86 13 3 309 196 224 139 140 144 145 130 139 219 268 142 228 212 168 193 195 203 217 198 217 200 182 222 213 222 250 304 210 115 236 195 256 244 238 254 257 268 270 233 193 220 241 252 258 259 255 244 226 221 215 212
182 184 185 192 197 197 205 207 211 218 228 239 256 265 270 258 238 254 145 153 156 128 182 186 182 190 239 168 99 107 107 82 102 232 152 155 164 206 96 126 162 159 175 211 108 224 145 132 253 193 203 191 200 211 225 1 4 358 232 233 299 241 191 222 94 114 296 247 239 241 254 263 258 258 252 254 244 222 245 253 255 252 249 248 240 228 218 213
184 184 188 192 192 196 203 202 212 215 209 225 213 206 186 144 146 154 180 223 216 234 339 150 188 70 106 100 116 73 139 205 152 79 122 15 200 169 140 169 142 259 185 216 128 108 332 193 201 201 221 200 201 225 37 48 18 3 344 293 273 284 270 100 98 61 188 290 258 255 262 267 269 267 268 269 267 261 246 245 248 243 239 237 235 235 223 211
183 183 192 197 199 197 201 205 202 202 194 234 224 211 176 177 163 182 163 200 87 4 356 21 29 73 55 106 120 152 129 140 316 155 144 36 299 188 162 180 180 201 176 41 116 88 250 237 217 212 42 53 100 93 79 46 323 280 280 276 246 174 273 81 99 142 112 277 286 290 278 271 273 273 271 265 258 255 253 252 249 246 240 236 233 233 226 215
184 183 186 192 187 198 201 195 199 175 222 230 224 216 312 163 5 354 157 181 207 72 285 37 250 97 76 118 119 354 282 129 161 153 138 220 181 209 153 212 188 208 116 138 136 165 210 218 177 80 91 84 83 107 114 254 195 218 268 252 287 254 311 112 83 127 161 223 271 290 288 281 279 278 272 260 249 247 248 251 258 263 258 246 239 237 233 199
180 187 187 186 190 192 196 186 184 177 212 207 209 243 267 21 309 250 302 197 182 107 243 202 165 130 112 97 171 265 180 160 170 175 175 210 170 263 157 202 203 153 157 187 197 196 214 222 123 120 122 123 96 140 157 180 229 225 218 229 243 57 327 238 108 119 186 235 302 316 296 276 273 263 257 259 256 255 252 251 255 254 256 255 250 243 232 222
181 190 186 194 190 194 186 170 155 200 221 219 241 228 57 357 321 295 256 192 185 160 208 132 312 148 152 148 174 192 223 128 167 171 133 197 184 144 196 198 198 170 197 193 216 217 210 73 60 142 159 171 170 167 187 203 226 212 240 246 260 273 250 266 355 309 211 238 304 274 274 263 242 252 253 246 254 246 248 246 250 250 249 256 266 256 240 229
185 186 185 189 190 183 163 151 199 211 194 240 258 253 106 47 346 7 239 137 243 145 353 268 167 250 141 50 131 204 117 100 31 109 153 222 162 160 197 20 234 202 208 194 223 236 195 85 124 143 160 187 176 190 205 216 244 206 205 229 260 360 293 316 322 342 287 244 123 329 318 294 100 208 253 160 185 212 215 225 238 243 238 232 233 232 228 230
185 185 182 187 181 169 151 198 208 170 169 200 182 108 93 94 11 325 262 208 230 148 111 206 135 173 128 164 124 191 106 195 57 53 132 8 340 255 103 193 248 221 198 183 213 245 357 105 199 153 165 167 208 232 192 211 246 251 172 279 242 255 10 320 302 315 280 290 116 323 321 283 265 264 235 217 207 235 243 230 259 257 245 219 213 214 220 222
185 183 180 176 180 151 162 206 121 142 168 220 109 115 106 112 15 280 204 158 256 155 166 60 194 173 312 144 162 141 195 167 126 114 156 13 193 28 220 163 165 13 50 126 36 213 134 151 125 177 151 175 183 215 183 201 230 237 38 308 143 196 210 264 291 268 275 326 289 167 223 279 287 250 232 229 233 242 247 253 251 251 253 204 196 207 211 200
187 180 177 177 177 175 285 58 157 181 175 52 68 114 128 115 239 255 265 207 233 132 161 190 209 12 296 137 208 206 22 119 147 177 18 111 281 163 273 184 187 185 173 170 216 56 170 158 177 166 186 186 209 268 116 191 226 39 41 13 98 147 94 189 248 286 305 333 295 163 192 252 267 65 36 166 202 205 229 244 252 258 110 116 183 133 106 121
182 182 176 180 175 198 250 235 227 204 38 38 70 133 117 129 268 194 199 234 116 126 345 140 250 172 93 165 138 97 148 353 266 97 148 79 29 321 204 208 196 120 137 211 258 103 37 91 191 190 178 203 94 56 356 201 219 135 139 82 86 86 87 139 281 283 295 292 268 159 178 270 285 264 160 164 202 197 230 236 242 140 101 106 100 96 127 142
184 181 176 174 174 199 229 256 251 31 63 38 164 130 147 188 159 205 165 243 133 173 128 106 190 174 164 159 183 167 168 114 49 132 153 173 144 197 38 320 133 146 172 217 37 55 64 206 342 282 214 49 97 65 27 39 59 130 152 109 115 128 159 177 268 269 286 251 264 159 178 217 290 282 165 156 195 209 189 200 153 101 112 106 99 123 139 140
179 179 175 173 194 177 185 229 239 184 86 353 176 165 157 180 198 188 197 167 165 90 132 155 148 149 165 176 176 180 173 115 144 145 137 152 148 210 148 147 60 158 125 199 228 140 145 114 177 109 74 127 108 86 51 2 139 162 156 174 170 220 171 226 211 153 233 258 102 338 285 221 238 273 152 146 180 314 168 154 171 123 103 107 127 128 126 123
180 177 179 183 195 157 193 213 94 130 156 217 218 162 175 176 229 212 196 91 227 164 183 165 162 172 179 182 161 167 162 147 158 180 167 178 171 181 194 202 161 188 221 201 208 124 211 219 113 109 313 162 164 113 76 75 202 233 183 182 211 221 165 224 181 217 206 247 103 26 346 292 234 243 112 223 252 208 246 241 174 276 197 160 161 155 141 135
178 178 174 191 184 201 215 91 181 143 141 209 207 179 184 184 205 200 217 143 237 139 164 151 164 174 176 178 184 162 161 180 165 197 178 181 193 203 201 213 183 204 242 186 191 146 206 94 157 137 144 239 211 182 141 180 200 200 199 186 192 229 225 245 220 231 300 91 289 76 118 250 275 294 246 245 231 228 211 229 244 253 257 238 170 165 155 156
180 173 174 196 197 205 211 164 114 158 147 208 195 176 210 198 206 202 217 184 148 31 105 143 144 164 172 186 171 152 157 175 165 167 184 170 206 198 201 217 216 197 254 148 200 178 218 214 203 147 220 171 207 225 192 209 176 204 205 196 207 216 225 237 220 235 239 278 87 254 165 245 271 265 7 15 54 63 52 304 265 273 270 224 218 166 163 165
181 176 184 188 205 210 207 158 138 172 161 189 185 191 188 201 200 196 214 157 116 112 98 146 147 157 177 176 127 174 216 169 200 157 191 184 200 212 192 201 201 221 203 212 205 185 219 250 85 152 358 156 192 191 30 133 148 189 220 246 249 236 253 260 353 353 2 338 213 168 231 272 237 351 267 262 248 251 210 222 226 241 258 249 233 220 200 189
174 185 182 189 190 203 195 155 159 186 181 193 185 195 205 191 200 196 209 114 126 128 129 137 144 165 172 168 155 186 21 226 173 183 198 209 212 211 205 197 192 193 191 209 143 210 107 232 99 126 99 189 178 18 193 292 217 168 154 213 209 24 284 34 136 83 87 278 257 220 264 258 285 274 254 236 231 231 211 195 192 221 237 239 245 243 202 182
170 155 187 179 191 188 157 157 162 184 199 225 196 204 203 215 225 201 140 157 145 132 147 144 183 182 174 183 179 190 156 89 161 187 201 175 247 225 208 211 195 192 208 198 208 221 241 139 359 161 210 36 27 334 12 38 345 110 213 195 74 30 7 210 252 183 212 244 262 184 236 274 285 284 77 156 203 234 229 210 211 225 222 225 238 246 208 163
154 165 184 189 186 156 142 152 163 176 176 204 223 212 201 222 201 203 136 120 147 145 161 168 160 192 181 173 181 176 171 191 166 190 214 161 252 179 196 206 198 204 204 207 246 160 199 241 129 4 30 83 31 153 225 96 26 320 329 33 179 200 212 207 231 242 241 242 266 244 247 258 242 253 254 146 172 173 179 200 211 226 230 230 230 241 186 131
111 173 222 189 125 142 146 157 167 157 165 196 221 217 202 218 152 173 155 139 152 153 183 189 134 209 189 191 165 176 165 190 161 188 184 183 223 177 195 177 193 206 203 185 210 169 163 233 168 339 106 102 144 181 209 178 129 355 274 247 357 327 250 202 199 276 255 253 239 261 253 261 240 246 263 252 248 244 214 199 209 222 232 237 234 234 168 155
155 189 230 123 140 138 152 156 140 143 180 199 207 235 214 203 64 97 160 147 172 178 197 192 164 165 194 195 152 162 188 198 166 188 202 166 217 157 201 180 188 181 192 191 204 155 211 143 254 108 298 162 193 196 218 168 174 189 220 223 175 217 33 342 275 220 229 248 249 273 275 256 274 240 253 259 246 219 225 220 213 223 234 237 239 66 97 140
162 274 206 139 144 142 136 143 146 171 191 238 261 245 32 207 107 189 304 1 127 13 199 197 171 182 162 136 175 152 170 189 186 190 198 193 194 223 195 181 136 137 161 184 202 181 201 160 224 138 182 207 213 145 220 210 195 190 191 205 197 177 195 205 241 140 220 228 240 255 257 275 248 62 88 264 232 217 183 193 221 231 237 235 128 126 140 156
159 197 199 156 148 144 144 154 213 174 200 205 202 222 200 52 193 158 207 223 355 180 341 220 197 177 148 191 164 165 157 188 187 196 206 208 203 232 143 173 159 143 151 173 199 197 195 178 212 187 212 211 123 55 50 112 9 288 232 229 207 211 196 199 225 191 154 233 297 266 298 267 210 111 214 187 182 34 35 327 250 243 277 28 47 40 11 187
190 197 94 156 161 149 155 100 342 200 211 203 30 51 13 50 126 82 193 189 196 143 171 207 193 178 181 180 174 152 166 191 183 202 207 221 234 210 153 180 152 161 152 119 85 51 77 182 200 238 163 87 113 139 86 84 310 258 247 284 228 211 204 216 234 235 214 159 223 232 236 264 102 53 87 56 70 22 325 280 275 296 321 19 32 61 145 293
192 167 116 170 172 163 167 167 180 197 223 216 358 212 16 354 352 166 202 189 204 168 199 177 117 214 188 183 169 182 169 208 199 201 221 203 226 130 156 173 160 168 180 179 181 150 178 196 221 219 234 205 158 167 202 91 208 234 235 199 226 231 210 211 43 19 254 222 228 217 239 257 180 137 106 171 179 200 203 212 202 266 283 292 286 266 177 197
141 24 125 158 194 179 192 155 161 187 216 208 208 236 217 225 243 284 308 193 336 240 188 207 192 148 172 162 192 187 182 205 172 207 219 191 208 43 173 175 179 186 202 164 170 156 195 162 183 209 218 225 218 203 207 187 197 207 228 223 203 208 211 176 224 218 239 244 230 230 248 254 259 258 178 191 187 199 213 192 201 226 260 273 278 232 242 224
191 184 171 166 196 194 212 130 136 155 184 184 212 238 215 229 222 261 223 291 337 324 312 348 69 194 155 166 197 197 200 208 221 152 202 206 173 186 177 188 187 199 193 111 156 163 215 190 192 195 213 228 233 334 113 130 133 184 205 205 207 208 214 214 225 227 227 242 244 231 238 261 260 218 175 209 194 199 204 199 220 214 220 223 217 233 242 246
344 233 152 179 160 221 187 154 174 173 196 174 196 174 213 219 209 7 160 247 212 237 324 283 177 179 186 185 192 204 201 205 221 205 192 204 123 128 71 212 213 205 107 124 170 167 115 231 214 217 225 236 242 221 161 147 175 197 195 195 204 201 203 206 210 226 220 244 251 242 227 243 257 247 246 243 197 220 213 210 207 227 238 230 206 194 191 224
200 277 231 262 229 178 189 187 180 189 186 179 215 165 201 203 203 218 128 230 41 300 221 230 258 239 197 192 183 205 191 213 200 223 183 194 118 134 124 178 214 142 162 183 184 179 183 224 221 224 233 242 243 245 166 188 182 189 194 188 197 201 200 206 221 230 213 216 240 251 187 225 251 255 235 252 226 204 206 215 205 218 251 233 230 219 222 223
293 354 273 340 214 215 199 172 176 185 184 176 205 191 200 203 203 204 195 157 206 219 191 232 222 224 235 213 210 208 182 195 222 223 212 123 166 128 169 98 232 193 189 185 167 208 159 241 233 222 234 238 242 241 203 202 209 198 195 197 195 196 202 207 219 221 220 229 241 254 256 245 253 259 246 256 257 230 225 221 241 253 256 252 253 250 233 212
199 208 218 76 289 333 210 167 176 178 188 177 186 202 198 197 209 201 184 170 172 219 186 229 227 214 223 227 249 233 209 212 207 221 150 146 174 192 191 190 126 143 175 202 175 297 187 223 220 224 244 243 244 246 244 233 231 236 220 216 206 204 206 205 212 220 223 236 242 252 259 262 254 259 263 257 248 262 256 250 258 264 268 262 258 257 256 253
351 13 337 177 207 212 246 179 174 185 186 181 199 201 202 206 213 191 203 197 196 189 189 214 222 224 221 234 245 252 271 278 296 338 113 196 213 186 189 212 144 153 179 181 169 226 176 250 49 178 232 249 244 235 232 219 251 251 245 233 227 223 220 203 214 204 205 218 229 241 252 254 258 142 239 238 229 227 240 253 257 259 260 262 263 259 259 263
180 291 313 322 234 166 195 206 200 171 214 186 192 191 187 209 210 179 198 198 212 212 200 209 219 210 225 220 229 232 236 242 87 105 84 69 72 52 43 90 96 154 163 191 72 169 187 188 212 162 227 240 256 208 159 148 78 261 247 236 228 217 225 213 211 213 213 208 223 226 236 243 259 258 234 229 236 245 253 256 251 251 258 261 263 266 266 264